[Iaude] MPEC B111: 2023 PM [a=2.10,e=0.51,i=3.2,H=23.99]
    mpec at marsden.cfa.harvard.edu 
    mpec at marsden.cfa.harvard.edu
       
    Tue Jan 23 09:41:38 EST 2024
    
    
  
M.P.E.C. 2024-B111                             Issued 2024 January 23, 14:40 UT
     The Minor Planet Electronic Circulars contain information on unusual
         minor planets, routine data on comets and natural satellites,
         and occasional editorial announcements.  They are published
    on behalf of Division F of the International Astronomical Union by the
          Minor Planet Center, Smithsonian Astrophysical Observatory,
                          Cambridge, MA 02138, U.S.A.
			  
             Prepared using the Tamkin Foundation Computer Network
                              MPC at CFA.HARVARD.EDU
            URL https://www.minorplanetcenter.net/    ISSN 1523-6714
                                    2023 PM                                     
                           Revision to MPEC 2023-P48                            
Additional Observations:
     K23P00M  C2020 06 15.49462719 40 35.863-32 52 34.64         21.92GVEB111F51
     K23P00M  C2020 06 15.50367519 40 37.893-32 52 32.94         21.84GVEB111F51
     K23P00M  C2020 06 15.52180319 40 41.968-32 52 28.71         21.90GVEB111F51
     K23P00M  C2020 06 20.53138220 03 15.615-32 20 27.97         21.04GVEB111F51
     K23P00M  C2020 06 20.55207620 03 21.402-32 20 16.09         22.24GVEB111F51
     K23P00M  C2020 06 20.56239820 03 24.302-32 20 09.54         21.99GVEB111F51
     K23P00M  C2020 06 21.49045620 08 10.745-32 10 35.27         21.84wUEB111F51
     K23P00M  C2020 06 21.50078820 08 13.759-32 10 28.72         21.26wUEB111F51
     K23P00M  C2020 06 21.51112320 08 16.802-32 10 21.56         21.94wUEB111F51
     K23P00M  C2020 06 24.49562220 24 59.484-31 29 01.62         21.37GVEB111F51
     K23P00M  C2020 06 24.51666020 25 06.550-31 28 40.74         20.93GVEB111F51
     K23P00M  C2020 06 24.52714920 25 10.073-31 28 30.02         21.28GVEB111F51
     K23P00M  C2020 07 17.53872523 57 57.344-06 30 58.91         20.80GVEB111F51
Observer details:
F51 Pan-STARRS 1, Haleakala.  Observers J. Herman, T. Lowe, P. Minguez, A.
    Schultz, I. Smith, J. Bulger, M. Willman.  Measurers K. Chambers, T. de
    Boer, J. Fairlamb, H. Gao, M. Huber, C.-C. Lin, E. Magnier, Y.
    Ramanjooloo, R. Wainscoat, R. Weryk, S. Chastel, L. Denneau, H.
    Flewelling.  1.8-m Ritchey-Chretien + CCD.
First and last observations above in comparison with prediction:
Residuals in seconds of arc (or two decimals in degrees), reference and Delta-T
200615 F51 0.15+ 0.04+    200717 F51 0.23+ 0.16+    MPO782828   +0.00 days
Orbital elements:
2023 PM                                                  Earth MOID = 0.0190 AU
Epoch 2023 Sept. 13.0 TT = JDT 2460200.5                Veres                   
M   7.17628              (2000.0)            P               Q                  
n   0.32485917     Peri.   18.90347     +0.84634102     +0.53082798             
a   2.0957491      Node   308.95571     -0.49567822     +0.75474859             
e   0.5106659      Incl.    3.23738     -0.19496150     +0.38545587             
P   3.03           H   23.99          G   0.15           U   0                  
Residuals in seconds of arc
200615 F51  0.0   0.0     230818 M45  0.5+  0.5+    230823 K74  0.6-  0.8-
200615 F51  0.1-  0.2-    230818 M45  0.1-  0.2+    230823 K74  0.1+  0.4-
200615 F51  0.2-  0.1+    230818 M45  0.1-  0.6+    230823 K74  0.0   0.4-
200620 F51  0.1+  0.0     230818 K87  0.8+  0.8+    230823 K74  0.0   0.4-
200620 F51  0.0   0.3-    230818 K87  0.2-  0.1+    230823 K74  0.1-  0.4-
200620 F51  0.1+  0.0     230818 K87  0.7+  0.3+    230823 K87  0.1+  0.5+
200621 F51  0.1-  0.0     230819 M45  0.1+  0.0     230823 K87  0.4-  0.4+
200621 F51  0.2-  0.1-    230819 M45  0.0   0.4+    230823 C40  0.0   0.2+
200621 F51  0.1+  0.4+    230819 M45  0.3+  0.4+    230823 C40  0.6+  0.4+
200624 F51  0.2+  0.0     230819 M38  0.0   0.2-    230823 C40  0.4+  0.2+
200624 F51  0.1+  0.0     230819 M38  0.1+  0.9+    230823 C40  0.2+  0.4-
200624 F51  0.0   0.1+    230819 Z28  0.7+  0.6+    230823 C40  0.3+  0.2-
200717 F51  0.0   0.0     230819 Z28  0.3+  0.2+    230823 203  0.1+  0.2-
230808 W94  0.2+  0.2-    230819 Z28  0.2+  0.1+    230823 203  0.1-  0.1-
230808 W94  0.3+  0.1-    230820 H21  0.2+  0.0     230823 203  0.0   0.0
230808 W94  0.2-  0.0     230820 H21  0.3+  0.1+    230823 Z80  0.1+  0.5-
230808 M45  0.6-  0.1-    230820 H21  0.0   0.1+    230823 Z80  0.5-  0.0
230808 M45  0.3-  0.2-    230820 H21  0.1+  0.1-    230823 Z80  0.2-  0.2-
230808 106  0.0   0.1-    230820 H21  0.3-  0.0     230823 Z80  0.3-  0.1+
230808 106  0.6-  0.4+    230820 M26  0.5+  0.4+    230824 L63  0.4+  0.4-
230808 M45  0.1-  0.3-    230820 M26  0.3+  0.0     230824 L63  0.4-  1.0-
230808 106  0.3+  0.8+    230820 M26  0.2+  0.2+    230824 Z80  0.6-  0.4-
230808 106  0.1+  0.7-    230820 C40  0.3-  0.6+    230824 C40  0.1+  0.1-
230808 958  0.9-  0.0     230820 C40  0.2-  0.4-    230824 C40  0.2+  0.3-
230808 I93  0.0   0.3-    230820 C40  0.3+  0.1+    230824 Z80  0.6-  0.1+
230808 I93  0.5-  0.4+    230820 L65  0.3-  0.4-    230824 C40  0.2+  0.1+
230808 958  1.4-  1.2+    230820 L65  0.1-  0.2-    230824 C40  0.1-  0.2+
230808 I93  0.3-  0.3+    230820 K74  0.1-  0.1-    230824 C40  0.0   0.3+
230808 J57  0.0   0.2-    230820 K74  0.1+  0.3-    230824 C40  0.2+  0.2+
230808 958  1.7-  0.2+    230820 G33  0.1+  0.1-    230824 C40  0.2+  0.0
230808 J57  0.8-  0.6-    230820 K74  0.4-  0.3-    230824 C40  0.3+  0.3-
230808 Y05  0.3-  0.0     230820 L65  0.2+  0.1+    230824 C40  0.0   0.1-
230808 Y05  0.5-  0.1-    230820 K74  0.2+  0.2-    230824 C40  0.1+  0.0
230808 Y05  0.2-  0.1-    230820 K74  0.4-  0.2-    230824 C40  0.2+  0.1-
230809 H21  0.1+  0.1-    230820 G33 (0.2-  0.9-)   230824 C40  0.1+  0.2-
230809 H21  0.1+  0.0     230820 G33  0.3+  0.1+    230824 C40  0.6+  0.2-
230809 H21  0.0   0.1-    230820 K19  0.1+  0.5-    230825 Z80  0.4-  0.3+
230810 474  0.1+  0.3-    230820 K19  0.7-  0.5+    230825 Z80  0.3+  0.0
230810 474  0.1-  0.3-    230820 K19  0.3+  0.2-    230827 M45  0.4+  0.2+
230810 474  0.0   0.1-    230820 L99  0.8+  0.5+    230827 M45  0.4+  0.2+
230810 474  0.1-  0.0     230820 L18  0.4-  0.5+    230827 M45  0.5+  0.5+
230811 T12  0.0   0.0     230820 L99  0.5+  0.3+    230827 L18  0.1-  0.3-
230811 T12  0.1-  0.1-    230820 L18  0.3+  0.1-    230827 L18  0.6-  0.0
230811 U52  0.6-  0.0     230820 L18  0.3+  0.2-    230827 L18  0.2-  0.0
230811 U52  0.1-  0.3-    230820 K87  0.7+  0.6+    230827 L65  0.9+  0.1+
230812 T12  0.0   0.1-    230820 L99  0.6+  0.7+    230827 L65  0.3-  0.1+
230812 T12  0.0   0.1-    230820 K87  1.1+  0.6+    230827 Z80  0.5-  0.3-
230813 M22  0.8+  0.3+    230821 O85  0.1+  0.2-    230827 Z80  0.2-  0.0
230813 M22  0.1-  0.4-    230821 O85  0.2-  0.1-    230827 L65  0.5-  0.5+
230813 M22  0.1+  0.0     230821 O85  0.1-  0.1-    230827 Z80  0.4-  0.3-
230813 033  0.1-  0.1-    230821 O85  0.2-  0.3-    230828 L76  0.4+  0.0
230813 033  0.0   0.3+    230821 O85  0.1+  0.5-    230828 L76  0.3-  0.2-
230813 033  0.1+  0.0     230821 O85  0.4+  0.3-    230828 L76  0.4-  0.2+
230813 M22  1.0+  0.4+    230821 M38  0.0   0.4+    230902 M45  0.3-  0.0
230813 L18  0.9+  0.2-    230821 M38  1.3-  1.0-    230902 M45  0.3-  0.9-
230813 L18  0.2+  0.1+    230821 K35  0.2+  0.5-    230902 M45  0.1+  0.1+
230813 L18  0.2+  0.6+    230821 K35  0.8+  0.8-    230906 B88  0.2-  0.1+
230814 U52  0.3-  0.5-    230821 L04  0.0   0.1-    230906 B88  0.1-  0.1+
230814 U52  0.7-  0.9+    230821 C40  0.0   0.0     230906 B88  0.1-  0.2+
230814 U52  0.9-  0.3-    230821 C40  0.1+  0.2-    230907 B88  0.2-  0.3-
230814 130  0.2-  0.3-    230821 C40  0.1+  0.1+    230907 B88  0.1+  0.1-
230814 130  0.2-  0.2+    230821 K74  0.2-  0.4-    230907 B88  0.2-  0.3-
230814 130  0.1-  0.1-    230821 K74  0.3-  0.3-    230908 B88  0.1-  1.1-
230815 M49  0.1+  0.1+    230821 073 (1.8+  0.0 )   230908 B88  0.1-  0.4-
230815 M49  0.3+  0.3+    230821 K74  0.1-  0.3-    230908 B88  0.2+  0.3+
230815 M49  0.2+  0.1-    230821 K74  0.0   0.1-    230909 B88  0.2+  0.3-
230816 M49  0.2+  0.0     230821 L04  0.3+  0.1-    230909 B88  0.1-  0.9+
230816 M49  0.2+  0.1+    230821 K74  0.1+  0.1-    230909 B88  0.2-  1.4+
230816 M49  0.2+  0.0     230821 073  0.2+  0.5-    230909 G96  0.0   0.1+
230816 M45  0.0   0.1-    230821 073  0.5-  0.6-    230909 G96  0.0   0.2-
230816 L76  0.2+  0.3+    230821 Z80  0.3+  0.7+    230909 G96  0.0   0.1-
230816 M45  0.3+  0.1-    230821 C40  0.1+  0.0     230909 G96  0.0   0.0
230816 M45  0.6+  0.1+    230821 C40  0.2+  0.2+    230910 B88  0.0   0.0
230816 M45  0.6+  0.1-    230821 C40  0.2+  0.1-    230910 B88  0.1-  0.5-
230816 L76  0.2+  0.2-    230821 Z80  0.4-  0.9+    230910 B88  0.4-  0.2-
230816 L76  0.0   0.4+    230822 C40  0.0   0.1+    230911 B88  0.2-  0.1-
230816 033  0.1-  0.1-    230822 C40  0.1-  0.1-    230911 B88  0.0   0.4+
230816 033  0.1+  0.2-    230822 C40  0.1-  0.2+    230911 B88  0.1+  0.3-
230816 033  0.1+  0.3-    230822 C40  0.4-  0.0     230922 G96  0.3-  0.0
230816 033  0.1-  0.2-    230822 C40  0.1+  0.3-    230922 G96  0.3+  0.1+
230817 M49  0.3-  0.1-    230822 C40  0.1+  0.3-    230922 G96  0.6+  0.1-
230817 M49  0.0   0.2+    230822 C40  0.3+  0.1+    230922 G96 (0.5-  0.8+)
230817 M49  0.7-  0.1+    230822 C40  0.1+  0.3+    231006 F51  0.1-  0.2-
230817 G17  0.7+  0.2+    230822 C40  0.1-  0.1-    231006 F51  0.1-  0.0
230817 G17  0.2-  0.0     230822 C40  0.2+  0.1-    231006 F51  0.1-  0.0
230817 G17  0.2-  0.1-    230822 C40  0.3+  0.2+    231010 F51  0.3+  0.1+
230817 K35  0.2+  0.4+    230822 C40  0.1+  0.3+    231010 F51  0.0   0.0
230817 K35  0.0   0.8+    230822 C40  0.3+  0.1+    231010 F51  0.1-  0.0
230817 K35  0.2-  0.0     230822 C40  0.4+  0.1+    231017 F51  0.3+  0.1+
230817 K35  0.1-  0.1-    230822 C40  0.1+  0.1+    231017 F51  0.0   0.0
230818 W68  1.2-  1.6-    230822 Z43  0.0   0.2-    231017 F51  0.1-  0.0
230818 W68  0.8+  2.5+    230822 Z43  0.1-  0.2-    231017 F51  0.4-  0.1+
230818 W68  0.6+  1.0+    230822 Z43  0.3-  0.1+
230818 W68  0.3-  0.0     230822 Z43  0.0   0.0
Ephemeris:
2023 PM                  a,e,i = 2.10, 0.51, 3                   q = 1.0255
Date    TT    R. A. (2000) Decl.     Delta      r    Elong.  Phase     V
2023 12 24    02 20 07.8 +19 41 37   0.8921  1.6827   127.5    27.6    26.1
...
2024 01 08    02 38 26.7 +19 58 16   1.1153  1.7861   116.5    29.5    26.8
...
2024 01 16    02 49 20.7 +20 17 06   1.2430  1.8402   110.9    30.0    27.1
...
2024 01 22    02 57 56.8 +20 34 16   1.3420  1.8802   106.9    30.1    27.3
2024 01 23    02 59 24.7 +20 37 19   1.3587  1.8868   106.2    30.1    27.3
2024 01 24    03 00 53.1 +20 40 25   1.3755  1.8934   105.5    30.1    27.4
...
2024 01 30    03 09 53.4 +20 59 49   1.4774  1.9327   101.5    30.0    27.6
...
2024 02 07    03 22 17.8 +21 27 07   1.6161  1.9842    96.4    29.6    27.8
...
2024 02 22    03 46 36.4 +22 19 10   1.8818  2.0779    86.9    28.4    28.2
A. U. Tomatic                (C) Copyright 2024 MPC           M.P.E.C. 2024-B111
    
    
More information about the Iaude
mailing list